Year,Month,Day,Hour,Minute,Value (Times are PST for temperature in C)
2014,07,14,00,00,17.90
2014,07,14,00,01,17.90
2014,07,14,00,02,17.80
2014,07,14,00,03,17.80
2014,07,14,00,04,17.80
2014,07,14,00,05,17.80
2014,07,14,00,06,17.80
2014,07,14,00,07,17.80
2014,07,14,00,08,17.80
2014,07,14,00,09,17.70
2014,07,14,00,10,17.70
2014,07,14,00,11,17.70
2014,07,14,00,12,17.70
2014,07,14,00,13,17.70
2014,07,14,00,14,17.70
2014,07,14,00,15,17.70
2014,07,14,00,16,17.70
2014,07,14,00,17,17.70
2014,07,14,00,18,17.70
2014,07,14,00,19,17.70
2014,07,14,00,20,17.70
2014,07,14,00,21,17.70
2014,07,14,00,22,17.70
2014,07,14,00,23,17.70
2014,07,14,00,24,17.70
2014,07,14,00,25,17.70
2014,07,14,00,26,17.70
2014,07,14,00,27,17.70
2014,07,14,00,28,17.70
2014,07,14,00,29,17.70
2014,07,14,00,30,17.70
2014,07,14,00,31,17.70
2014,07,14,00,32,17.70
2014,07,14,00,33,17.70
2014,07,14,00,34,17.70
2014,07,14,00,35,17.70
2014,07,14,00,36,17.70
2014,07,14,00,37,17.70
2014,07,14,00,38,17.70
2014,07,14,00,39,17.60
2014,07,14,00,40,17.60
2014,07,14,00,41,17.60
2014,07,14,00,42,17.60
2014,07,14,00,43,17.50
2014,07,14,00,44,17.50
2014,07,14,00,45,17.50
2014,07,14,00,46,17.40
2014,07,14,00,47,17.40
2014,07,14,00,48,17.40
2014,07,14,00,49,17.40
2014,07,14,00,50,17.30
2014,07,14,00,51,17.30
2014,07,14,00,52,17.30
2014,07,14,00,53,17.30
2014,07,14,00,54,17.30
2014,07,14,00,55,17.30
2014,07,14,00,56,17.30
2014,07,14,00,57,17.30
2014,07,14,00,58,17.30
2014,07,14,00,59,17.30
2014,07,14,01,00,17.30
2014,07,14,01,01,17.30
2014,07,14,01,02,17.30
2014,07,14,01,03,17.40
2014,07,14,01,04,17.40
2014,07,14,01,05,17.40
2014,07,14,01,06,17.40
2014,07,14,01,07,17.40
2014,07,14,01,08,17.50
2014,07,14,01,09,17.50
2014,07,14,01,10,17.60
2014,07,14,01,11,17.60
2014,07,14,01,12,17.60
2014,07,14,01,13,17.60
2014,07,14,01,14,17.70
2014,07,14,01,15,17.70
2014,07,14,01,16,17.70
2014,07,14,01,17,17.70
2014,07,14,01,18,17.70
2014,07,14,01,19,17.80
2014,07,14,01,20,17.80
2014,07,14,01,21,17.80
2014,07,14,01,22,17.90
2014,07,14,01,23,17.90
2014,07,14,01,24,17.90
2014,07,14,01,25,17.90
2014,07,14,01,26,18.00
2014,07,14,01,27,18.00
2014,07,14,01,28,17.90
2014,07,14,01,29,17.90
2014,07,14,01,30,17.90
2014,07,14,01,31,17.90
2014,07,14,01,32,17.80
2014,07,14,01,33,17.80
2014,07,14,01,34,17.80
2014,07,14,01,35,17.80
2014,07,14,01,36,17.80
2014,07,14,01,37,17.70
2014,07,14,01,38,17.70
2014,07,14,01,39,17.60
2014,07,14,01,40,17.60
2014,07,14,01,41,17.50
2014,07,14,01,42,17.50
2014,07,14,01,43,17.40
2014,07,14,01,44,17.40
2014,07,14,01,45,17.40
2014,07,14,01,46,17.30
2014,07,14,01,47,17.30
2014,07,14,01,48,17.30
2014,07,14,01,49,17.30
2014,07,14,01,50,17.30
2014,07,14,01,51,17.20
2014,07,14,01,52,17.20
2014,07,14,01,53,17.20
2014,07,14,01,54,17.10
2014,07,14,01,55,17.10
2014,07,14,01,56,17.10
2014,07,14,01,57,17.10
2014,07,14,01,58,17.10
2014,07,14,01,59,17.10
2014,07,14,02,00,17.10
2014,07,14,02,01,17.10
2014,07,14,02,02,17.10
2014,07,14,02,03,17.10
2014,07,14,02,04,17.10
2014,07,14,02,05,17.10
2014,07,14,02,06,17.10
2014,07,14,02,07,17.10
2014,07,14,02,08,17.10
2014,07,14,02,09,17.10
2014,07,14,02,10,17.10
2014,07,14,02,11,17.10
2014,07,14,02,12,17.10
2014,07,14,02,13,17.00
2014,07,14,02,14,17.00
2014,07,14,02,15,16.90
2014,07,14,02,16,16.90
2014,07,14,02,17,16.90
2014,07,14,02,18,16.90
2014,07,14,02,19,16.80
2014,07,14,02,20,16.80
2014,07,14,02,21,16.80
2014,07,14,02,22,16.90
2014,07,14,02,23,16.80
2014,07,14,02,24,16.80
2014,07,14,02,25,16.80
2014,07,14,02,26,16.80
2014,07,14,02,27,16.80
2014,07,14,02,28,16.90
2014,07,14,02,29,16.80
2014,07,14,02,30,16.80
2014,07,14,02,31,16.80
2014,07,14,02,32,16.80
2014,07,14,02,33,16.90
2014,07,14,02,34,16.90
2014,07,14,02,35,16.90
2014,07,14,02,36,16.90
2014,07,14,02,37,16.90
2014,07,14,02,38,16.80
2014,07,14,02,39,16.80
2014,07,14,02,40,16.80
2014,07,14,02,41,16.80
2014,07,14,02,42,16.70
2014,07,14,02,43,16.70
2014,07,14,02,44,16.70
2014,07,14,02,45,16.70
2014,07,14,02,46,16.70
2014,07,14,02,47,16.70
2014,07,14,02,48,16.70
2014,07,14,02,49,16.70
2014,07,14,02,50,16.70
2014,07,14,02,51,16.70
2014,07,14,02,52,16.70
2014,07,14,02,53,16.70
2014,07,14,02,54,16.70
2014,07,14,02,55,16.70
2014,07,14,02,56,16.70
2014,07,14,02,57,16.80
2014,07,14,02,58,16.80
2014,07,14,02,59,16.90
2014,07,14,03,00,17.00
2014,07,14,03,01,17.00
2014,07,14,03,02,17.10
2014,07,14,03,03,17.10
2014,07,14,03,04,17.10
2014,07,14,03,05,17.20
2014,07,14,03,06,17.30
2014,07,14,03,07,17.40
2014,07,14,03,08,17.50
2014,07,14,03,09,17.60
2014,07,14,03,10,17.70
2014,07,14,03,11,17.70
2014,07,14,03,12,17.80
2014,07,14,03,13,17.80
2014,07,14,03,14,17.80
2014,07,14,03,15,17.80
2014,07,14,03,16,17.80
2014,07,14,03,17,17.80
2014,07,14,03,18,17.70
2014,07,14,03,19,17.70
2014,07,14,03,20,17.70
2014,07,14,03,21,17.70
2014,07,14,03,22,17.70
2014,07,14,03,23,17.70
2014,07,14,03,24,17.70
2014,07,14,03,25,17.70
2014,07,14,03,26,17.70
2014,07,14,03,27,17.70
2014,07,14,03,28,17.70
2014,07,14,03,29,17.70
2014,07,14,03,30,17.70
2014,07,14,03,31,17.70
2014,07,14,03,32,17.70
2014,07,14,03,33,17.70
2014,07,14,03,34,17.60
2014,07,14,03,35,17.60
2014,07,14,03,36,17.50
2014,07,14,03,37,17.40
2014,07,14,03,38,17.30
2014,07,14,03,39,17.30
2014,07,14,03,40,17.10
2014,07,14,03,41,17.00
2014,07,14,03,42,16.90
2014,07,14,03,43,16.80
2014,07,14,03,44,16.70
2014,07,14,03,45,16.60
2014,07,14,03,46,16.50
2014,07,14,03,47,16.50
2014,07,14,03,48,16.40
2014,07,14,03,49,16.40
2014,07,14,03,50,16.40
2014,07,14,03,51,16.30
2014,07,14,03,52,16.30
2014,07,14,03,53,16.30
2014,07,14,03,54,16.30
2014,07,14,03,55,16.30
2014,07,14,03,56,16.30
2014,07,14,03,57,16.30
2014,07,14,03,58,16.30
2014,07,14,03,59,16.40
2014,07,14,04,00,16.50
2014,07,14,04,01,16.60
2014,07,14,04,02,16.60
2014,07,14,04,03,16.70
2014,07,14,04,04,16.70
2014,07,14,04,05,16.60
2014,07,14,04,06,16.60
2014,07,14,04,07,16.50
2014,07,14,04,08,16.50
2014,07,14,04,09,16.40
2014,07,14,04,10,16.40
2014,07,14,04,11,16.40
2014,07,14,04,12,16.30
2014,07,14,04,13,16.30
2014,07,14,04,14,16.30
2014,07,14,04,15,16.30
2014,07,14,04,16,16.30
2014,07,14,04,17,16.30
2014,07,14,04,18,16.30
2014,07,14,04,19,16.40
2014,07,14,04,20,16.30
2014,07,14,04,21,16.40
2014,07,14,04,22,16.40
2014,07,14,04,23,16.40
2014,07,14,04,24,16.40
2014,07,14,04,25,16.50
2014,07,14,04,26,16.50
2014,07,14,04,27,16.50
2014,07,14,04,28,16.50
2014,07,14,04,29,16.50
2014,07,14,04,30,16.50
2014,07,14,04,31,16.60
2014,07,14,04,32,16.60
2014,07,14,04,33,16.70
2014,07,14,04,34,16.70
2014,07,14,04,35,16.70
2014,07,14,04,36,16.70
2014,07,14,04,37,16.60
2014,07,14,04,38,16.60
2014,07,14,04,39,16.60
2014,07,14,04,40,16.50
2014,07,14,04,41,16.50
2014,07,14,04,42,16.40
2014,07,14,04,43,16.40
2014,07,14,04,44,16.30
2014,07,14,04,45,16.30
2014,07,14,04,46,16.30
2014,07,14,04,47,16.40
2014,07,14,04,48,16.40
2014,07,14,04,49,16.40
2014,07,14,04,50,16.40
2014,07,14,04,51,16.40
2014,07,14,04,52,16.40
2014,07,14,04,53,16.50
2014,07,14,04,54,16.40
2014,07,14,04,55,16.40
2014,07,14,04,56,16.40
2014,07,14,04,57,16.40
2014,07,14,04,58,16.30
2014,07,14,04,59,16.30
2014,07,14,05,00,16.30
2014,07,14,05,01,16.30
2014,07,14,05,02,16.30
2014,07,14,05,03,16.30
2014,07,14,05,04,16.30
2014,07,14,05,05,16.20
2014,07,14,05,06,16.30
2014,07,14,05,07,16.30
2014,07,14,05,08,16.30
2014,07,14,05,09,16.30
2014,07,14,05,10,16.30
2014,07,14,05,11,16.30
2014,07,14,05,12,16.30
2014,07,14,05,13,16.30
2014,07,14,05,14,16.30
2014,07,14,05,15,16.30
2014,07,14,05,16,16.30
2014,07,14,05,17,16.30
2014,07,14,05,18,16.30
2014,07,14,05,19,16.30
2014,07,14,05,20,16.30
2014,07,14,05,21,16.30
2014,07,14,05,22,16.30
2014,07,14,05,23,16.30
2014,07,14,05,24,16.20
2014,07,14,05,25,16.20
2014,07,14,05,26,16.20
2014,07,14,05,27,16.10
2014,07,14,05,28,16.10
2014,07,14,05,29,16.10
2014,07,14,05,30,16.00
2014,07,14,05,31,16.00
2014,07,14,05,32,16.00
2014,07,14,05,33,15.90
2014,07,14,05,34,15.90
2014,07,14,05,35,15.90
2014,07,14,05,36,15.90
2014,07,14,05,37,15.80
2014,07,14,05,38,15.80
2014,07,14,05,39,15.80
2014,07,14,05,40,15.80
2014,07,14,05,41,15.80
2014,07,14,05,42,15.70
2014,07,14,05,43,15.70
2014,07,14,05,44,15.70
2014,07,14,05,45,15.60
2014,07,14,05,46,15.60
2014,07,14,05,47,15.50
2014,07,14,05,48,15.40
2014,07,14,05,49,15.40
2014,07,14,05,50,15.40
2014,07,14,05,51,15.40
2014,07,14,05,52,15.30
2014,07,14,05,53,15.30
2014,07,14,05,54,15.30
2014,07,14,05,55,15.30
2014,07,14,05,56,15.30
2014,07,14,05,57,15.30
2014,07,14,05,58,15.30
2014,07,14,05,59,15.30
2014,07,14,06,00,15.30
2014,07,14,06,01,15.30
2014,07,14,06,02,15.30
2014,07,14,06,03,15.30
2014,07,14,06,04,15.30
2014,07,14,06,05,15.20
2014,07,14,06,06,15.20
2014,07,14,06,07,15.20
2014,07,14,06,08,15.20
2014,07,14,06,09,15.20
2014,07,14,06,10,15.10
2014,07,14,06,11,15.10
2014,07,14,06,12,15.10
2014,07,14,06,13,15.10
2014,07,14,06,14,15.10
2014,07,14,06,15,15.10
2014,07,14,06,16,15.10
2014,07,14,06,17,15.10
2014,07,14,06,18,15.10
2014,07,14,06,19,15.10
2014,07,14,06,20,15.20
2014,07,14,06,21,15.10
2014,07,14,06,22,15.10
2014,07,14,06,23,15.10
2014,07,14,06,24,15.10
2014,07,14,06,25,15.10
2014,07,14,06,26,15.10
2014,07,14,06,27,15.10
2014,07,14,06,28,15.10
2014,07,14,06,29,15.10
2014,07,14,06,30,15.00
2014,07,14,06,31,15.00
2014,07,14,06,32,15.00
2014,07,14,06,33,15.00
2014,07,14,06,34,15.00
2014,07,14,06,35,15.00
2014,07,14,06,36,15.10
2014,07,14,06,37,15.10
2014,07,14,06,38,15.10
2014,07,14,06,39,15.10
2014,07,14,06,40,15.10
2014,07,14,06,41,15.10
2014,07,14,06,42,15.20
2014,07,14,06,43,15.20
2014,07,14,06,44,15.20
2014,07,14,06,45,15.30
2014,07,14,06,46,15.30
2014,07,14,06,47,15.40
2014,07,14,06,48,15.50
2014,07,14,06,49,15.60
2014,07,14,06,50,15.70
2014,07,14,06,51,15.80
2014,07,14,06,52,15.90
2014,07,14,06,53,16.10
2014,07,14,06,54,16.30
2014,07,14,06,55,16.50
2014,07,14,06,56,16.70
2014,07,14,06,57,16.90
2014,07,14,06,58,17.10
2014,07,14,06,59,17.20
2014,07,14,07,00,17.40
2014,07,14,07,01,17.60
2014,07,14,07,02,17.80
2014,07,14,07,03,18.00
2014,07,14,07,04,18.10
2014,07,14,07,05,18.20
2014,07,14,07,06,18.30
2014,07,14,07,07,18.40
2014,07,14,07,08,18.50
2014,07,14,07,09,18.60
2014,07,14,07,10,18.70
2014,07,14,07,11,18.70
2014,07,14,07,12,18.80
2014,07,14,07,13,18.80
2014,07,14,07,14,18.70
2014,07,14,07,15,18.60
2014,07,14,07,16,18.40
2014,07,14,07,17,18.10
2014,07,14,07,18,17.90
2014,07,14,07,19,17.70
2014,07,14,07,20,17.50
2014,07,14,07,21,17.30
2014,07,14,07,22,17.20
2014,07,14,07,23,17.20
2014,07,14,07,24,17.10
2014,07,14,07,25,17.00
2014,07,14,07,26,16.90
2014,07,14,07,27,16.70
2014,07,14,07,28,16.60
2014,07,14,07,29,16.50
2014,07,14,07,30,16.40
2014,07,14,07,31,16.40
2014,07,14,07,32,16.30
2014,07,14,07,33,16.30
2014,07,14,07,34,16.20
2014,07,14,07,35,16.10
2014,07,14,07,36,16.10
2014,07,14,07,37,16.00
2014,07,14,07,38,16.00
2014,07,14,07,39,16.00
2014,07,14,07,40,16.00
2014,07,14,07,41,16.00
2014,07,14,07,42,16.10
2014,07,14,07,43,16.10
2014,07,14,07,44,16.20
2014,07,14,07,45,16.20
2014,07,14,07,46,16.30
2014,07,14,07,47,16.40
2014,07,14,07,48,16.50
2014,07,14,07,49,16.50
2014,07,14,07,50,16.60
2014,07,14,07,51,16.70
2014,07,14,07,52,16.80
2014,07,14,07,53,16.80
2014,07,14,07,54,16.90
2014,07,14,07,55,16.90
2014,07,14,07,56,17.00
2014,07,14,07,57,17.10
2014,07,14,07,58,17.10
2014,07,14,07,59,17.10
2014,07,14,08,00,17.10
2014,07,14,08,01,17.20
2014,07,14,08,02,17.20
2014,07,14,08,03,17.20
2014,07,14,08,04,17.20
2014,07,14,08,05,17.20
2014,07,14,08,06,17.10
2014,07,14,08,07,17.10
2014,07,14,08,08,17.10
2014,07,14,08,09,17.10
2014,07,14,08,10,17.10
2014,07,14,08,11,17.00
2014,07,14,08,12,16.90
2014,07,14,08,13,16.80
2014,07,14,08,14,16.80
2014,07,14,08,15,16.80
2014,07,14,08,16,16.80
2014,07,14,08,17,16.70
2014,07,14,08,18,16.70
2014,07,14,08,19,16.70
2014,07,14,08,20,16.80
2014,07,14,08,21,16.80
2014,07,14,08,22,16.90
2014,07,14,08,23,17.00
2014,07,14,08,24,17.10
2014,07,14,08,25,17.20
2014,07,14,08,26,17.30
2014,07,14,08,27,17.40
2014,07,14,08,28,17.40
2014,07,14,08,29,17.50
2014,07,14,08,30,17.50
2014,07,14,08,31,17.60
2014,07,14,08,32,17.70
2014,07,14,08,33,17.70
2014,07,14,08,34,17.70
2014,07,14,08,35,17.70
2014,07,14,08,36,17.70
2014,07,14,08,37,17.80
2014,07,14,08,38,17.90
2014,07,14,08,39,18.00
2014,07,14,08,40,18.20
2014,07,14,08,41,18.30
2014,07,14,08,42,18.40
2014,07,14,08,43,18.30
2014,07,14,08,44,18.20
2014,07,14,08,45,18.00
2014,07,14,08,46,17.80
2014,07,14,08,47,17.60
2014,07,14,08,48,17.50
2014,07,14,08,49,17.50
2014,07,14,08,50,17.40
2014,07,14,08,51,17.30
2014,07,14,08,52,17.30
2014,07,14,08,53,17.30
2014,07,14,08,54,17.30
2014,07,14,08,55,17.30
2014,07,14,08,56,17.30
2014,07,14,08,57,17.30
2014,07,14,08,58,17.30
2014,07,14,08,59,17.30
2014,07,14,09,00,17.40
2014,07,14,09,01,17.40
2014,07,14,09,02,17.40
2014,07,14,09,03,17.50
2014,07,14,09,04,17.50
2014,07,14,09,05,17.60
2014,07,14,09,06,17.50
2014,07,14,09,07,17.40
2014,07,14,09,08,17.40
2014,07,14,09,09,17.40
2014,07,14,09,10,17.50
2014,07,14,09,11,17.50
2014,07,14,09,12,17.60
2014,07,14,09,13,17.60
2014,07,14,09,14,17.70
2014,07,14,09,15,17.70
2014,07,14,09,16,17.70
2014,07,14,09,17,17.70
2014,07,14,09,18,17.70
2014,07,14,09,19,17.80
2014,07,14,09,20,17.80
2014,07,14,09,21,17.90
2014,07,14,09,22,17.90
2014,07,14,09,23,17.90
2014,07,14,09,24,18.00
2014,07,14,09,25,18.10
2014,07,14,09,26,18.10
2014,07,14,09,27,18.20
2014,07,14,09,28,18.20
2014,07,14,09,29,18.30
2014,07,14,09,30,18.40
2014,07,14,09,31,18.50
2014,07,14,09,32,18.60
2014,07,14,09,33,18.80
2014,07,14,09,34,19.00
2014,07,14,09,35,19.10
2014,07,14,09,36,19.20
2014,07,14,09,37,19.30
2014,07,14,09,38,19.40
2014,07,14,09,39,19.50
2014,07,14,09,40,19.70
2014,07,14,09,41,19.80
2014,07,14,09,42,20.00
2014,07,14,09,43,20.20
2014,07,14,09,44,20.40
2014,07,14,09,45,20.50
2014,07,14,09,46,20.50
2014,07,14,09,47,20.50
2014,07,14,09,48,20.50
2014,07,14,09,49,20.60
2014,07,14,09,50,20.60
2014,07,14,09,51,20.60
2014,07,14,09,52,20.70
2014,07,14,09,53,20.80
2014,07,14,09,54,20.80
2014,07,14,09,55,20.80
2014,07,14,09,56,20.90
2014,07,14,09,57,20.90
2014,07,14,09,58,21.00
2014,07,14,09,59,21.10
2014,07,14,10,00,21.10
2014,07,14,10,01,21.20
2014,07,14,10,02,21.30
2014,07,14,10,03,21.30
2014,07,14,10,04,21.40
2014,07,14,10,05,21.50
2014,07,14,10,06,21.60
2014,07,14,10,07,21.70
2014,07,14,10,08,21.70
2014,07,14,10,09,21.80
2014,07,14,10,10,21.80
2014,07,14,10,11,21.70
2014,07,14,10,12,21.60
2014,07,14,10,13,21.60
2014,07,14,10,14,21.60
2014,07,14,10,15,21.60
2014,07,14,10,16,21.50
2014,07,14,10,17,21.50
2014,07,14,10,18,21.40
2014,07,14,10,19,21.40
2014,07,14,10,20,21.50
2014,07,14,10,21,21.50
2014,07,14,10,22,21.60
2014,07,14,10,23,21.70
2014,07,14,10,24,21.80
2014,07,14,10,25,21.90
2014,07,14,10,26,22.00
2014,07,14,10,27,22.00
2014,07,14,10,28,22.10
2014,07,14,10,29,22.10
2014,07,14,10,30,22.20
2014,07,14,10,31,22.20
2014,07,14,10,32,22.20
2014,07,14,10,33,22.30
2014,07,14,10,34,22.40
2014,07,14,10,35,22.40
2014,07,14,10,36,22.60
2014,07,14,10,37,22.70
2014,07,14,10,38,22.80
2014,07,14,10,39,22.90
2014,07,14,10,40,23.00
2014,07,14,10,41,23.10
2014,07,14,10,42,23.10
2014,07,14,10,43,23.20
2014,07,14,10,44,23.30
2014,07,14,10,45,23.40
2014,07,14,10,46,23.50
2014,07,14,10,47,23.60
2014,07,14,10,48,23.80
2014,07,14,10,49,23.90
2014,07,14,10,50,24.00
2014,07,14,10,51,24.10
2014,07,14,10,52,24.10
2014,07,14,10,53,24.20
2014,07,14,10,54,24.40
2014,07,14,10,55,24.50
2014,07,14,10,56,24.60
2014,07,14,10,57,24.70
2014,07,14,10,58,24.90
2014,07,14,10,59,25.00
2014,07,14,11,00,25.10
2014,07,14,11,01,25.10
2014,07,14,11,02,25.20
2014,07,14,11,03,25.20
2014,07,14,11,04,25.20
2014,07,14,11,05,25.10
2014,07,14,11,06,24.90
2014,07,14,11,07,24.80
2014,07,14,11,08,24.60
2014,07,14,11,09,24.50
2014,07,14,11,10,24.40
2014,07,14,11,11,24.30
2014,07,14,11,12,24.20
2014,07,14,11,13,24.10
2014,07,14,11,14,23.90
2014,07,14,11,15,23.60
2014,07,14,11,16,23.50
2014,07,14,11,17,23.30
2014,07,14,11,18,23.20
2014,07,14,11,19,23.20
2014,07,14,11,20,23.10
2014,07,14,11,21,22.90
2014,07,14,11,22,22.80
2014,07,14,11,23,22.70
2014,07,14,11,24,22.60
2014,07,14,11,25,22.40
2014,07,14,11,26,22.10
2014,07,14,11,27,21.90
2014,07,14,11,28,21.70
2014,07,14,11,29,21.60
2014,07,14,11,30,21.50
2014,07,14,11,31,21.50
2014,07,14,11,32,21.30
2014,07,14,11,33,21.20
2014,07,14,11,34,21.10
2014,07,14,11,35,21.00
2014,07,14,11,36,21.00
2014,07,14,11,37,20.90
2014,07,14,11,38,20.90
2014,07,14,11,39,21.00
2014,07,14,11,40,20.90
2014,07,14,11,41,20.90
2014,07,14,11,42,21.00
2014,07,14,11,43,21.00
2014,07,14,11,44,21.00
2014,07,14,11,45,21.00
2014,07,14,11,46,21.00
2014,07,14,11,47,21.10
2014,07,14,11,48,21.10
2014,07,14,11,49,21.20
2014,07,14,11,50,21.20
2014,07,14,11,51,21.40
2014,07,14,11,52,21.50
2014,07,14,11,53,21.70
2014,07,14,11,54,21.80
2014,07,14,11,55,21.90
2014,07,14,11,56,22.00
2014,07,14,11,57,22.00
2014,07,14,11,58,22.10
2014,07,14,11,59,22.10
2014,07,14,12,00,22.10
2014,07,14,12,01,22.00
2014,07,14,12,02,21.90
2014,07,14,12,03,21.90
2014,07,14,12,04,21.90
2014,07,14,12,05,21.80
2014,07,14,12,06,21.70
2014,07,14,12,07,21.60
2014,07,14,12,08,21.50
2014,07,14,12,09,21.50
2014,07,14,12,10,21.40
2014,07,14,12,11,21.50
2014,07,14,12,12,21.60
2014,07,14,12,13,21.70
2014,07,14,12,14,21.80
2014,07,14,12,15,21.90
2014,07,14,12,16,21.90
2014,07,14,12,17,21.90
2014,07,14,12,18,22.00
2014,07,14,12,19,22.00
2014,07,14,12,20,21.90
2014,07,14,12,21,21.90
2014,07,14,12,22,21.90
2014,07,14,12,23,21.80
2014,07,14,12,24,21.90
2014,07,14,12,25,22.00
2014,07,14,12,26,22.10
2014,07,14,12,27,22.10
2014,07,14,12,28,22.20
2014,07,14,12,29,22.30
2014,07,14,12,30,22.30
2014,07,14,12,31,22.40
2014,07,14,12,32,22.40
2014,07,14,12,33,22.40
2014,07,14,12,34,22.40
2014,07,14,12,35,22.40
2014,07,14,12,36,22.50
2014,07,14,12,37,22.60
2014,07,14,12,38,22.60
2014,07,14,12,39,22.70
2014,07,14,12,40,22.80
2014,07,14,12,41,22.90
2014,07,14,12,42,23.00
2014,07,14,12,43,23.10
2014,07,14,12,44,23.20
2014,07,14,12,45,23.20
2014,07,14,12,46,23.20
2014,07,14,12,47,23.20
2014,07,14,12,48,23.20
2014,07,14,12,49,23.30
2014,07,14,12,50,23.30
2014,07,14,12,51,23.40
2014,07,14,12,52,23.50
2014,07,14,12,53,23.60
2014,07,14,12,54,23.70
2014,07,14,12,55,23.70
2014,07,14,12,56,23.80
2014,07,14,12,57,23.80
2014,07,14,12,58,23.90
2014,07,14,12,59,23.90
2014,07,14,13,00,23.90
2014,07,14,13,01,23.90
2014,07,14,13,02,23.90
2014,07,14,13,03,24.00
2014,07,14,13,04,24.00
2014,07,14,13,05,24.10
2014,07,14,13,06,24.10
2014,07,14,13,07,24.20
2014,07,14,13,08,24.30
2014,07,14,13,09,24.50
2014,07,14,13,10,24.60
2014,07,14,13,11,24.80
2014,07,14,13,12,24.90
2014,07,14,13,13,25.10
2014,07,14,13,14,25.20
2014,07,14,13,15,25.30
2014,07,14,13,16,25.40
2014,07,14,13,17,25.40
2014,07,14,13,18,25.40
2014,07,14,13,19,25.30
2014,07,14,13,20,25.30
2014,07,14,13,21,25.30
2014,07,14,13,22,25.30
2014,07,14,13,23,25.40
2014,07,14,13,24,25.40
2014,07,14,13,25,25.60
2014,07,14,13,26,25.70
2014,07,14,13,27,25.90
2014,07,14,13,28,26.00
2014,07,14,13,29,26.10
2014,07,14,13,30,26.20
2014,07,14,13,31,26.20
2014,07,14,13,32,26.20
2014,07,14,13,33,26.10
2014,07,14,13,34,26.00
2014,07,14,13,35,25.80
2014,07,14,13,36,25.70
2014,07,14,13,37,25.60
2014,07,14,13,38,25.50
2014,07,14,13,39,25.50
2014,07,14,13,40,25.40
2014,07,14,13,41,25.40
2014,07,14,13,42,25.40
2014,07,14,13,43,25.40
2014,07,14,13,44,25.40
2014,07,14,13,45,25.50
2014,07,14,13,46,25.70
2014,07,14,13,47,25.70
2014,07,14,13,48,25.80
2014,07,14,13,49,25.80
2014,07,14,13,50,25.80
2014,07,14,13,51,25.80
2014,07,14,13,52,25.80
2014,07,14,13,53,25.90
2014,07,14,13,54,25.90
2014,07,14,13,55,25.90
2014,07,14,13,56,25.80
2014,07,14,13,57,25.80
2014,07,14,13,58,25.70
2014,07,14,13,59,25.80
2014,07,14,14,00,25.80
2014,07,14,14,01,25.80
2014,07,14,14,02,25.80
2014,07,14,14,03,25.80
2014,07,14,14,04,25.80
2014,07,14,14,05,25.90
2014,07,14,14,06,25.90
2014,07,14,14,07,25.90
2014,07,14,14,08,26.00
2014,07,14,14,09,26.00
2014,07,14,14,10,26.10
2014,07,14,14,11,26.20
2014,07,14,14,12,26.30
2014,07,14,14,13,26.40
2014,07,14,14,14,26.50
2014,07,14,14,15,26.60
2014,07,14,14,16,26.70
2014,07,14,14,17,26.80
2014,07,14,14,18,27.00
2014,07,14,14,19,27.10
2014,07,14,14,20,27.10
2014,07,14,14,21,27.10
2014,07,14,14,22,27.20
2014,07,14,14,23,27.20
2014,07,14,14,24,27.20
2014,07,14,14,25,27.30
2014,07,14,14,26,27.40
2014,07,14,14,27,27.40
2014,07,14,14,28,27.50
2014,07,14,14,29,27.50
2014,07,14,14,30,27.50
2014,07,14,14,31,27.60
2014,07,14,14,32,27.60
2014,07,14,14,33,27.60
2014,07,14,14,34,27.60
2014,07,14,14,35,27.70
2014,07,14,14,36,27.70
2014,07,14,14,37,27.80
2014,07,14,14,38,27.90
2014,07,14,14,39,28.00
2014,07,14,14,40,28.00
2014,07,14,14,41,28.00
2014,07,14,14,42,28.00
2014,07,14,14,43,28.00
2014,07,14,14,44,28.00
2014,07,14,14,45,28.00
2014,07,14,14,46,27.90
2014,07,14,14,47,27.90
2014,07,14,14,48,27.80
2014,07,14,14,49,27.80
2014,07,14,14,50,27.80
2014,07,14,14,51,27.80
2014,07,14,14,52,27.90
2014,07,14,14,53,27.90
2014,07,14,14,54,27.90
2014,07,14,14,55,28.00
2014,07,14,14,56,28.00
2014,07,14,14,57,28.00
2014,07,14,14,58,28.10
2014,07,14,14,59,28.10
2014,07,14,15,00,28.10
2014,07,14,15,01,28.10
2014,07,14,15,02,28.20
2014,07,14,15,03,28.20
2014,07,14,15,04,28.30
2014,07,14,15,05,28.40
2014,07,14,15,06,28.50
2014,07,14,15,07,28.60
2014,07,14,15,08,28.70
2014,07,14,15,09,28.80
2014,07,14,15,10,28.80
2014,07,14,15,11,28.90
2014,07,14,15,12,29.00
2014,07,14,15,13,29.10
2014,07,14,15,14,29.30
2014,07,14,15,15,29.40
2014,07,14,15,16,29.40
2014,07,14,15,17,29.40
2014,07,14,15,18,29.30
2014,07,14,15,19,29.30
2014,07,14,15,20,29.20
2014,07,14,15,21,29.10
2014,07,14,15,22,29.10
2014,07,14,15,23,29.10
2014,07,14,15,24,29.10
2014,07,14,15,25,29.10
2014,07,14,15,26,29.10
2014,07,14,15,27,29.10
2014,07,14,15,28,29.10
2014,07,14,15,29,29.10
2014,07,14,15,30,29.10
2014,07,14,15,31,29.20
2014,07,14,15,32,29.10
2014,07,14,15,33,29.10
2014,07,14,15,34,29.10
2014,07,14,15,35,29.00
2014,07,14,15,36,29.10
2014,07,14,15,37,29.10
2014,07,14,15,38,29.10
2014,07,14,15,39,29.20
2014,07,14,15,40,29.10
2014,07,14,15,41,29.00
2014,07,14,15,42,28.80
2014,07,14,15,43,28.60
2014,07,14,15,44,28.40
2014,07,14,15,45,28.30
2014,07,14,15,46,28.20
2014,07,14,15,47,28.20
2014,07,14,15,48,28.20
2014,07,14,15,49,28.30
2014,07,14,15,50,28.40
2014,07,14,15,51,28.40
2014,07,14,15,52,28.40
2014,07,14,15,53,28.50
2014,07,14,15,54,28.50
2014,07,14,15,55,28.60
2014,07,14,15,56,28.60
2014,07,14,15,57,28.60
2014,07,14,15,58,28.70
2014,07,14,15,59,28.80
2014,07,14,16,00,28.80
2014,07,14,16,01,28.90
2014,07,14,16,02,29.00
2014,07,14,16,03,29.10
2014,07,14,16,04,29.20
2014,07,14,16,05,29.30
2014,07,14,16,06,29.40
2014,07,14,16,07,29.50
2014,07,14,16,08,29.50
2014,07,14,16,09,29.60
2014,07,14,16,10,29.70
2014,07,14,16,11,29.70
2014,07,14,16,12,29.60
2014,07,14,16,13,29.60
2014,07,14,16,14,29.50
2014,07,14,16,15,29.40
2014,07,14,16,16,29.30
2014,07,14,16,17,29.30
2014,07,14,16,18,29.20
2014,07,14,16,19,29.10
2014,07,14,16,20,29.10
2014,07,14,16,21,29.10
2014,07,14,16,22,29.00
2014,07,14,16,23,29.00
2014,07,14,16,24,29.00
2014,07,14,16,25,28.90
2014,07,14,16,26,28.90
2014,07,14,16,27,29.00
2014,07,14,16,28,29.00
2014,07,14,16,29,29.00
2014,07,14,16,30,29.10
2014,07,14,16,31,29.10
2014,07,14,16,32,29.20
2014,07,14,16,33,29.20
2014,07,14,16,34,29.20
2014,07,14,16,35,29.30
2014,07,14,16,36,29.30
2014,07,14,16,37,29.30
2014,07,14,16,38,29.30
2014,07,14,16,39,29.30
2014,07,14,16,40,29.30
2014,07,14,16,41,29.40
2014,07,14,16,42,29.40
2014,07,14,16,43,29.40
2014,07,14,16,44,29.30
2014,07,14,16,45,29.20
2014,07,14,16,46,29.10
2014,07,14,16,47,29.00
2014,07,14,16,48,29.00
2014,07,14,16,49,28.90
2014,07,14,16,50,28.80
2014,07,14,16,51,28.70
2014,07,14,16,52,28.60
2014,07,14,16,53,28.60
2014,07,14,16,54,28.60
2014,07,14,16,55,28.60
2014,07,14,16,56,28.60
2014,07,14,16,57,28.70
2014,07,14,16,58,28.80
2014,07,14,16,59,28.90
2014,07,14,17,00,29.00
2014,07,14,17,01,29.20
2014,07,14,17,02,29.40
2014,07,14,17,03,29.50
2014,07,14,17,04,29.70
2014,07,14,17,05,29.80
2014,07,14,17,06,29.90
2014,07,14,17,07,30.00
2014,07,14,17,08,30.10
2014,07,14,17,09,30.20
2014,07,14,17,10,30.20
2014,07,14,17,11,30.30
2014,07,14,17,12,30.40
2014,07,14,17,13,30.50
2014,07,14,17,14,30.50
2014,07,14,17,15,30.50
2014,07,14,17,16,30.60
2014,07,14,17,17,30.60
2014,07,14,17,18,30.70
2014,07,14,17,19,30.80